User: anonymous   Login
Location: Gombori
(14.9797°N, 2.9419°W)
Time: 19:52:23
(UTC+00:00)
Language:

ERS-2 - Orbit

View from above orbital plane
View from above orbital plane
View from above satellite
View from above satellite

Ground track
Ground track

The orbit data is extracted from the following two-line orbital elements,

1 23560U 95021A   21295.56628489  .00001708  00000-0  73481-4 0  9993
2 23560  98.5300 163.2918 0002340 310.0913  50.0116 15.24363281417054
Epoch (UTC): 22 October 2021 13:35:27
Eccentricity: 0.0002340
inclination: 98.5300°
perigee height: 491 km
apogee height: 494 km
right ascension of ascending node: 163.2918°
argument of perigee: 310.0913°
revolutions per day: 15.24363281
mean anomaly at epoch: 50.0116°
orbit number at epoch: 41705

The dashed part of the orbit path shows where the satellite is in the earth's shadow,  

DLR